Flag for Turkey Weather past 2 weeks in Bursa, Turkey

Now
73 °F

Clear.


Feels Like: 77 °F
Forecast: 59 / 90 °F
Wind: 5 mph from Northeast

Location: Bursa

Current Time: Aug 27, 2015 at 11:15:16 PM

Latest Report: Aug 27, 2015 at 10:00 PM


Visibility: 9 mi

Pressure: 30.07 "Hg

Humidity: 58%

Dew point: 57 °F

Location of BursaLocation

Historic Weather in Bursa — Graph

°F

Bursa temperature yesterday

Maximum temperature yesterday: 85 °F (at 3:00 PM)
Minimum temperature yesterday: 68 °F (at 6:00 AM)
Average temperature yesterday: 77 °F

Past Weeks' High & Low Weather Summary

 TemperatureHumidityPressure
High97 °F (Aug 17, 3:00 PM)88% (Aug 16, 3:00 AM)30.06 "Hg (Aug 16, 3:00 AM)
Low65 °F (Aug 27, 6:00 AM)31% (Aug 25, 4:00 PM)29.72 "Hg (Aug 17, 7:00 PM)
Average81 °F57%29.90 "Hg
* Reported Aug 12 9:00 PM — Aug 27 9:00 PM, Bursa, Weather by CustomWeather, © 2015

Note: Actual official high and low records may vary slightly from our data, if they occured in-between our weather recording intervals... More about our weather records

Advertising

Bursa weather history for previous 24 hours

 ConditionsComfort  
Time TempWeatherWind HumidityBarometerVisibility
9:00 PM
Thu, Aug 27
76 °FClear.10 mph51%30.06 "Hg9 mi
8:00 PM78 °FClear.10 mph46%30.03 "Hg12 mi
7:00 PM81 °FSunny.15 mph43%30.02 "Hg12 mi
6:00 PM84 °FSunny.17 mph43%30.02 "Hg12 mi
5:00 PM86 °FSunny.16 mph41%30.01 "Hg9 mi
4:00 PM87 °FSunny.14 mph40%30.02 "Hg9 mi
3:00 PM88 °FSunny.16 mph39%30.01 "Hg12 mi
2:00 PM88 °FSunny.9 mph40%30.03 "Hg12 mi
1:00 PM84 °FSunny.5 mph43%30.04 "Hg12 mi
12:00 PM82 °FSunny.6 mph45%30.05 "Hg9 mi
11:00 AM80 °FSunny.7 mph50%30.06 "Hg9 mi
10:00 AM76 °FSunny.8 mph57%30.06 "Hg9 mi
9:00 AM73 °FSunny.6 mph63%30.05 "Hg9 mi
8:00 AM69 °FSunny.3 mph69%30.04 "Hg9 mi
7:00 AM65 °FSunny.2 mph76%30.03 "Hg9 mi
6:00 AM65 °FClear.2 mph78%30.02 "Hg9 mi
5:00 AM65 °FClear.1 mph77%30.02 "Hg9 mi
4:00 AM65 °FClear.1 mph78%30.02 "Hg9 mi
3:00 AM68 °FClear.7 mph72%30.03 "Hg9 mi
2:00 AM69 °FClear.3 mph71%30.03 "Hg9 mi
1:00 AM70 °FClear.2 mph67%30.04 "Hg9 mi
11:00 PM
Wed, Aug 26
72 °FClear.6 mph63%30.03 "Hg9 mi
Weather by CustomWeather, © 2015

See weather overviewHow to use our weather pages